Toronto, Ontario

3:59 PM EDT on July 20, 2017 (GMT -0400)
Toronto

Weather History for CYTZ - October, 2012

Change the Weather History Date:

Wednesday, October 24, 2012

  Actual Average Record
Temperature  
Mean Temperature 50 °F -  
Max Temperature 53 °F 47 °F 60 °F (1998)
Min Temperature 48 °F 37 °F 32 °F (2002)
Degree Days  
Heating Degree Days 14    
Moisture  
Dew Point 46 °F    
Average Humidity 82    
Maximum Humidity 94    
Minimum Humidity 71    
Precipitation  
Precipitation 0.00 in 0.09 in - ()
Sea Level Pressure  
Sea Level Pressure 30.11 in    
Wind  
Wind Speed 13 mph ()    
Max Wind Speed 17 mph    
Max Gust Speed 23 mph    
Visibility 9.0 miles    
Events Rain    
Averages and records for this station are not official NWS values.
T = Trace of Precipitation, MM = Missing Value Source: Averaged Metar Reports

Daily Weather History Graph

Daily Weather History Graph

Search for Another Location

Airport or City:

Trip Planner

Search our weather history database for the weather conditions in past years. The results will help you decide how hot, cold, wet, or windy it might be!

Date:

Astronomy

Oct. 24, 2012 Rise Set
Actual Time 7:43 AM EDT 6:19 PM EDT
Civil Twilight 7:14 AM EDT 6:48 PM EDT
Nautical Twilight 6:40 AM EDT 7:21 PM EDT
Astronomical Twilight 6:07 AM EDT 7:55 PM EDT
Moon 3:41 PM EDT (10/24) 2:28 AM EDT (10/24)
Length of Visible Light 11h 34m
Length of Day
10h 35m
Waxing Gibbous, 76% of the Moon is Illuminated
Oct 24
Waxing Gibbous
Oct 29
Full
Nov 6
Last Quarter
Nov 13
New
Nov 20
First Quarter

Hourly Weather History & Observations

Time (EDT) Temp. Dew Point Humidity Pressure Visibility Wind Dir Wind Speed Gust Speed Precip Events Conditions
12:00 AM 48.2 °F 46.4 °F 93% 30.12 in 9.0 mi ENE 17.3 mph 23.0 mph N/A   Overcast
1:00 AM 50.0 °F 44.6 °F 82% 30.11 in 9.0 mi ENE 17.3 mph - N/A   Overcast
2:00 AM 50 °F 44 °F 75% 30.11 in 10 mi ENE 15.0 mph - -   Clear
2:00 AM 50.0 °F 44.6 °F 82% 30.11 in 9.0 mi ENE 13.8 mph - N/A   Overcast
3:00 AM 50.0 °F 44.6 °F 82% 30.11 in 9.0 mi ENE 13.8 mph - N/A   Overcast
4:00 AM 50.0 °F 44.6 °F 82% 30.10 in 9.0 mi ENE 13.8 mph - N/A   Overcast
5:00 AM 50.0 °F 44.6 °F 82% 30.10 in 9.0 mi ENE 13.8 mph - N/A   Overcast
6:00 AM 50.0 °F 44.6 °F 82% 30.11 in 9.0 mi ENE 13.8 mph - N/A   Overcast
7:00 AM 50.0 °F 44.6 °F 82% 30.12 in 9.0 mi ENE 13.8 mph - N/A   Overcast
7:06 AM 50.0 °F 44.6 °F 82% 30.12 in 9.0 mi ENE 13.8 mph - N/A   Overcast
7:08 AM 50.0 °F 44.6 °F 82% 30.12 in 9.0 mi ENE 12.7 mph 18.4 mph N/A   Overcast
7:13 AM 50.0 °F 44.6 °F 82% 30.12 in 9.0 mi ENE 12.7 mph - N/A   Overcast
7:15 AM 50.0 °F 44.6 °F 82% 30.12 in 9.0 mi ENE 13.8 mph - N/A   Overcast
7:16 AM 50.0 °F 44.6 °F 82% 30.12 in 9.0 mi ENE 12.7 mph - N/A   Overcast
7:17 AM 50.0 °F 44.6 °F 82% 30.12 in 9.0 mi ENE 11.5 mph - N/A   Overcast
7:55 AM 50.0 °F 44.6 °F 82% 30.12 in 9.0 mi ENE 11.5 mph - N/A   Overcast
8:00 AM 50.0 °F 44.6 °F 82% 30.12 in 9.0 mi ENE 12.7 mph - N/A   Overcast
8:24 AM 50.0 °F 44.6 °F 82% 30.12 in 9.0 mi ENE 12.7 mph - N/A   Overcast
8:33 AM 50.0 °F 44.6 °F 82% 30.13 in 9.0 mi ENE 12.7 mph - N/A   Overcast
9:23 AM 51.8 °F 44.6 °F 76% 30.12 in 9.0 mi ENE 13.8 mph - N/A   Overcast
9:38 AM 51.8 °F 44.6 °F 76% 30.13 in 9.0 mi ENE 13.8 mph - N/A   Overcast
10:00 AM 51.8 °F 42.8 °F 71% 30.13 in 9.0 mi ENE 13.8 mph - N/A   Overcast
11:00 AM 51.8 °F 42.8 °F 71% 30.12 in 9.0 mi ENE 13.8 mph - N/A   Overcast
12:00 PM 51.8 °F 44.6 °F 76% 30.12 in 9.0 mi ENE 16.1 mph - N/A   Overcast
1:00 PM 51.8 °F 44.6 °F 76% 30.11 in 9.0 mi ENE 13.8 mph - N/A   Overcast
1:03 PM 51.8 °F 44.6 °F 76% 30.11 in 9.0 mi ENE 13.8 mph - N/A Rain Light Rain
1:26 PM 51.8 °F 46.4 °F 82% 30.11 in 9.0 mi ENE 11.5 mph - N/A   Overcast
1:51 PM 51.8 °F 46.4 °F 82% 30.09 in 9.0 mi ENE 12.7 mph - N/A Rain Light Rain
2:00 PM 52 °F 46 °F 74% 30.09 in 10 mi ENE 12.7 mph - - Rain Light Rain
2:00 PM 51.8 °F 46.4 °F 82% 30.09 in 9.0 mi ENE 12.7 mph - N/A Rain Light Rain
2:07 PM 51.8 °F 46.4 °F 82% 30.09 in 9.0 mi ENE 13.8 mph - N/A   Overcast
3:00 PM 51.8 °F 46.4 °F 82% 30.09 in 9.0 mi ENE 12.7 mph - N/A   Overcast
4:00 PM 51.8 °F 46.4 °F 82% 30.09 in 9.0 mi ENE 15.0 mph - N/A   Overcast
5:00 PM 51.8 °F 48.2 °F 88% 30.09 in 9.0 mi ENE 10.4 mph - N/A   Overcast
6:00 PM 51.8 °F 48.2 °F 88% 30.10 in 9.0 mi ENE 10.4 mph - N/A   Overcast
6:12 PM 51.8 °F 48.2 °F 88% 30.10 in 9.0 mi ENE 12.7 mph - N/A   Overcast
7:00 PM 53.6 °F 48.2 °F 82% 30.11 in 9.0 mi NE 12.7 mph - N/A   Overcast
8:00 PM 51.8 °F 50.0 °F 94% 30.11 in 9.0 mi ENE 15.0 mph - N/A   Overcast
9:00 PM 53.6 °F 50.0 °F 88% 30.12 in 9.0 mi ENE 13.8 mph - N/A   Overcast
9:04 PM 53.6 °F 50.0 °F 88% 30.12 in 9.0 mi ENE 15.0 mph - N/A   Overcast
10:00 PM 53.6 °F 50.0 °F 88% 30.12 in 9.0 mi ENE 15.0 mph - N/A   Overcast
11:00 PM 53.6 °F 50.0 °F 88% 30.11 in 9.0 mi ENE 15.0 mph - N/A   Overcast
11:29 PM 51.8 °F 50.0 °F 94% 30.11 in 9.0 mi ENE 15.0 mph - N/A   Overcast